Location: Peterborough
(44.3091°N, 78.3197°W)
Time: 03:32:03
(UTC-04:00)

S-56A Canister/Altair - Pass Details

Date: 23 March 2023
Orbit: 639 x 2492 km, 38.9° (Epoch: 08 June)

Event Time Altitude Azimuth Distance (km) Brightness Sun altitude
Rises 03:45:06 0° 285° (WNW) 6,171 - -34.4°
Reaches altitude 10° 03:50:14 10° 274° (W) 5,101 - -33.7°
Maximum altitude 04:00:42 25° 228° (SW) 3,664 - -32.3°
Drops below altitude 10° 04:09:32 10° 179° (S) 4,214 - -31.1°
Sets 04:13:19 0° 166° (SSE) 4,920 - -30.6°
Exits shadow 04:13:21 - 166° (SSE) 4,928 11.4 -30.6°
